Regional Weather Roundup
Issued by NWS

Home | Current Version | Previous Version | Text Only | Print | Product List | Glossary On
Versions: 1 2 3 4 5 6 7 8 9 10 11 12 13 14 15 16 17 18 19 20 21 22 23 24 25 26 27 28
000
ASUS45 KSLC 201510
RWRUT

UTAH REGIONAL WEATHER ROUNDUP
NATIONAL WEATHER SERVICE SALT LAKE CITY UT
900 AM MDT THU JUL 20 2017

UTZ001>011-023>025-201600-

NORTHERN UTAH

CITY           SKY/WX    TMP DP  RH WIND       PRES   REMARKS
BRIGHAM CITY   MOSUNNY   76  55  47 NW6       30.09S
DUGWAY         MOSUNNY   81  54  39 S14G21    30.09R
HILL AFB       MOSUNNY   77  52  42 SE8G21    30.13R
LOGAN          PTSUNNY   72  58  61 N5        30.10R
OGDEN          MOSUNNY   80  53  39 S7        30.09R
SALT LAKE CITY PTSUNNY   81  57  43 SE17      30.08R
TOOELE VALLEY  MOSUNNY   82  55  39 S16G24    30.08S
WENDOVER       MOSUNNY   80  55  42 NE8       30.06R
HEBER CITY     PTSUNNY   70  54  56 CALM      30.23R
WEST JORDAN    MOSUNNY   78  63  60 S12       30.13R

$$

UTZ011>015-024>027-201600-

CENTRAL/NORTHEAST UTAH

CITY           SKY/WX    TMP DP  RH WIND       PRES   REMARKS
PROVO AIRPORT  MOSUNNY   77  58  51 S10       30.16R
MOAB/CANYONLAN SUNNY     77  61  57 S6        30.15R
DELTA          PTSUNNY   73  55  53 S14       30.17R
PRICE          MOSUNNY   75  53  46 SE5       30.26S
ROOSEVELT      CLOUDY    66  55  68 CALM      30.26S
VERNAL         CLOUDY    69  61  75 SE3       30.25S

$$

UTZ013>016-019>022-027-201600-

SOUTHERN UTAH

CITY           SKY/WX    TMP DP  RH WIND       PRES   REMARKS
BRYCE CANYON   MOSUNNY   67  52  58 CALM      30.41S
CEDAR CITY     CLOUDY    72  58  61 SW13      30.25R
MILFORD        CLOUDY    74  60  61 SW13      30.20R
ST GEORGE      PTSUNNY   84  62  47 E10       30.10R
HANKSVILLE     SUNNY     77  52  41 CALM      30.17S
BLANDING       MOSUNNY   71  57  60 W5        30.38R

$$

REGIONAL REPORTS     COLORADO/ARIZONA

CITY           SKY/WX    TMP DP  RH WIND       PRES   REMARKS
CRAIG, CO      SUNNY     68  55  63 CALM      30.32R
GRAND JUNCTION SUNNY     76  61  59 SE10      30.21S
RIFLE, CO      SUNNY     71  56  58 CALM      30.28S
MONTROSE, CO   SUNNY     72  56  57 SW3       30.30S
CORTEZ, CO     SUNNY     75  55  49 SW6       30.29R
COLORADO CITY    N/A     70  64  83 CALM      30.26S
PAGE, AZ       SUNNY     80  57  45 N3        30.18R
GRAND CANYON   MOSUNNY   66  58  75 SW7       30.38R
KINGMAN, AZ    CLOUDY    79  66  64 SE12      30.14R
FLAGSTAFF, AZ  PTSUNNY   62  58  86 SW5       30.39R

$$

REGIONAL REPORTS    NEVADA/IDAHO/WYOMING

CITY           SKY/WX    TMP DP  RH WIND       PRES   REMARKS
LAS VEGAS, NV  CLOUDY    85  66  53 CALM      30.02R
ELY, NY        MOSUNNY   71  55  56 S10       30.26R
ELKO, NV       MOSUNNY   66  24  20 CALM      30.15S
POCATELLO, ID  SUNNY     76  59  55 NW5       30.09R
BURLEY, ID     MOSUNNY   70  52  52 S3        30.06R
FORT BRIDGER,    N/A     66  49  54 CALM      30.35R
EVANSTON, WY   CLOUDY    66  49  54 S3        30.32R
ROCK SPRINGS,  CLOUDY    67  51  56 CALM      30.31R
KEMMERER, WY     N/A     64  48  55 N5        30.34R

$$




USA.gov is the U.S. government's official web portal to all federal, state and local government web resources and services.